AXM717 WMKK-WSSS

Flight info

Callsign AXM717
Flight time N/A
Altitude 25000
Route RUSBU2E RUSBU Y511 TOPOR A464 ARAMA DCT TEBUN TEBUN1A
Aircraft A20N/M-SDE2E3FGHIRWXY/LB1

Departure

Time 2026-04-30 15:11
Airport Kuala Lumpur International Airport (WMKK)

Arrival

Time N/A
Airport Singapore Changi Airport (WSSS)
Time Latitude Longitude Altitude Speed Heading
2026-04-30 14:42 2.75132 101.70430 65 ft 0 kts 322°
2026-04-30 15:00 2.75107 101.70450 65 ft 3 kts 328°
2026-04-30 15:01 2.75038 101.70478 62 ft 0 kts 60°
2026-04-30 15:04 2.75056 101.70503 60 ft 6 kts 58°
2026-04-30 15:05 2.74984 101.70626 56 ft 11 kts 137°
2026-04-30 15:06 2.75035 101.70775 63 ft 14 kts 55°
2026-04-30 15:06 2.75162 101.70962 70 ft 18 kts 55°
2026-04-30 15:07 2.75240 101.71077 62 ft 0 kts 55°
2026-04-30 15:07 2.75256 101.71099 69 ft 8 kts 54°
2026-04-30 15:08 2.75387 101.71291 66 ft 25 kts 56°
2026-04-30 15:08 2.75547 101.71524 69 ft 14 kts 55°
2026-04-30 15:09 2.75581 101.71575 72 ft 1 kts 53°
2026-04-30 15:09 2.75681 101.71565 73 ft 22 kts
2026-04-30 15:10 2.76280 101.71244 65 ft 104 kts 326°
2026-04-30 15:11 2.80308 101.68735 853 ft 214 kts 338°
2026-04-30 15:11 2.83290 101.67962 2149 ft 221 kts 348°
2026-04-30 15:12 2.88256 101.67186 3243 ft 264 kts 24°
2026-04-30 15:13 2.90485 101.69915 4530 ft 264 kts 80°
2026-04-30 15:14 2.86416 101.75786 7917 ft 281 kts 136°
2026-04-30 15:14 2.82348 101.80111 10342 ft 296 kts 128°
2026-04-30 15:16 2.75008 101.89109 13081 ft 349 kts 127°
2026-04-30 15:17 2.68730 101.96780 15684 ft 363 kts 127°
2026-04-30 15:18 2.60533 102.06798 18587 ft 380 kts 128°
2026-04-30 15:19 2.54588 102.12148 20088 ft 392 kts 141°